Change the Weather History Date:

Monday, April 28, 2014

  Actual Average (KHRO) Record (KHRO)
Temperature  
Mean Temperature 62 °F 61 °F  
Max Temperature 68 °F 72 °F 94 °F (1927)
Min Temperature 55 °F 51 °F 30 °F (1928)
Degree Days  
Heating Degree Days 4 5  
Month to date heating degree days 231  
Since 1 July heating degree days 3911  
Cooling Degree Days 0 1  
Month to date cooling degree days 28  
Year to date cooling degree days 34  
Growing Degree Days 12 (Base 50)    
Moisture  
Dew Point 45 °F    
Average Humidity 60    
Maximum Humidity 100    
Minimum Humidity 32    
Precipitation  
Precipitation 0.00 in 0.17 in 2.28 in (1915)
Month to date precipitation 3.99  
Year to date precipitation 12.98  
Snow  
Snow 0.00 in 0.00 in - ()
Month to date snowfall 0.3  
Since 1 July snowfall 11.5  
Snow Depth -    
Sea Level Pressure  
Sea Level Pressure 29.51 in    
Wind  
Wind Speed 10 mph (SW)    
Max Wind Speed 25 mph    
Max Gust Speed 36 mph    
Visibility 9 miles    
Events Thunderstorm    
T = Trace of Precipitation, MM = Missing Value Source: NWS Daily Summary

Daily Weather History Graph

Daily Weather History Graph

Search for Another Location

Airport or City:

Trip Planner

Search our weather history database for the weather conditions in past years. The results will help you decide how hot, cold, wet, or windy it might be!

Date:

Astronomy

Apr. 28, 2014 Rise Set
Actual Time 6:23 AM CDT 7:59 PM CDT
Civil Twilight 5:55 AM CDT 8:27 PM CDT
Nautical Twilight 5:22 AM CDT 9:00 PM CDT
Astronomical Twilight 4:47 AM CDT 9:35 PM CDT
Moon 6:00 AM CDT (4/28) 7:38 PM CDT (4/28)
Length of Visible Light 14h 31m
Length of Day
13h 36m
Waning Crescent, 0% of the Moon is Illuminated
Apr 28
Waning Crescent
Apr 29
New
May 6
First Quarter
May 14
Full
May 21
Last Quarter

Hourly Weather History & Observations

Time (CDT) Temp. Dew Point Humidity Pressure Visibility Wind Dir Wind Speed Gust Speed Precip Events Conditions
12:15 AM 60.8 °F 60.8 °F 100% 29.49 in 5.0 mi SE 10.4 mph - N/A   Mostly Cloudy
12:35 AM 59.0 °F 57.2 °F 94% 29.47 in 10.0 mi East 8.1 mph - N/A Thunderstorm Mostly Cloudy
12:55 AM 57.2 °F 55.4 °F 94% 29.48 in 10.0 mi ESE 4.6 mph 17.3 mph N/A   Mostly Cloudy
1:15 AM 57.2 °F 55.4 °F 94% 29.45 in 7.0 mi Calm Calm - N/A   Mostly Cloudy
1:35 AM 57.2 °F 55.4 °F 94% 29.46 in 10.0 mi SE 4.6 mph - N/A   Mostly Cloudy
1:55 AM 57.2 °F 55.4 °F 94% 29.47 in 10.0 mi ESE 4.6 mph - N/A   Mostly Cloudy
2:15 AM 57.2 °F 53.6 °F 88% 29.47 in 10.0 mi ESE 3.5 mph - N/A   Mostly Cloudy
2:35 AM 57.2 °F 53.6 °F 88% 29.45 in 10.0 mi Calm Calm - N/A   Overcast
2:55 AM 57.2 °F 53.6 °F 88% 29.44 in 10.0 mi Calm Calm - N/A   Overcast
3:15 AM 57.2 °F 53.6 °F 88% 29.44 in 10.0 mi ESE 8.1 mph - N/A   Mostly Cloudy
3:35 AM 57.2 °F 53.6 °F 88% 29.44 in 10.0 mi Calm Calm - N/A   Overcast
3:55 AM 57.2 °F 53.6 °F 88% 29.44 in 10.0 mi SE 5.8 mph - N/A   Overcast
4:15 AM 55.4 °F 53.6 °F 94% 29.43 in 10.0 mi East 4.6 mph - N/A   Overcast
4:35 AM 55.4 °F 55.4 °F 100% 29.43 in 10.0 mi East 5.8 mph - N/A   Overcast
4:55 AM 55.4 °F 53.6 °F 94% 29.43 in 10.0 mi East 4.6 mph - N/A   Overcast
5:15 AM 55.4 °F 55.4 °F 100% 29.42 in 10.0 mi East 3.5 mph - N/A   Overcast
5:35 AM 57.2 °F 55.4 °F 94% 29.43 in 10.0 mi ESE 5.8 mph - N/A   Overcast
5:55 AM 57.2 °F 55.4 °F 94% 29.43 in 10.0 mi East 5.8 mph - N/A   Overcast
6:15 AM 55.4 °F 55.4 °F 100% 29.44 in 8.0 mi ESE 4.6 mph - N/A   Mostly Cloudy
7:55 AM 62.6 °F 53.6 °F 72% 29.45 in 5.0 mi SW 11.5 mph 20.7 mph N/A   Haze
8:15 AM 62.6 °F 55.4 °F 77% 29.46 in 5.0 mi SW 11.5 mph 16.1 mph N/A   Haze
8:55 AM 62.6 °F 51.8 °F 68% 29.48 in 6.0 mi WSW 15.0 mph 20.7 mph N/A   Haze
9:15 AM 62.6 °F 48.2 °F 59% 29.49 in 5.0 mi WSW 13.8 mph 21.9 mph N/A   Haze
9:35 AM 62.6 °F 46.4 °F 55% 29.50 in 5.0 mi WSW 13.8 mph 21.9 mph N/A   Haze
9:55 AM 62.6 °F 44.6 °F 52% 29.50 in 5.0 mi SW 16.1 mph 25.3 mph N/A   Haze
10:15 AM 62.6 °F 44.6 °F 52% 29.51 in 7.0 mi SW 17.3 mph 25.3 mph N/A   Clear
10:35 AM 62.6 °F 42.8 °F 48% 29.51 in 10.0 mi WSW 25.3 mph 31.1 mph N/A   Clear
11:15 AM 62.6 °F 44.6 °F 52% 29.53 in 10.0 mi WSW 23.0 mph 28.8 mph N/A   Clear
11:35 AM 64.4 °F 44.6 °F 49% 29.53 in 10.0 mi SW 16.1 mph 25.3 mph N/A   Clear
12:15 PM 64.4 °F 42.8 °F 45% 29.53 in 10.0 mi WSW 20.7 mph 28.8 mph N/A   Clear
12:35 PM 64.4 °F 42.8 °F 45% 29.53 in 10.0 mi WSW 17.3 mph 32.2 mph N/A   Clear
12:55 PM 66.2 °F 41.0 °F 40% 29.54 in 10.0 mi West 20.7 mph 27.6 mph N/A   Clear
1:15 PM 66.2 °F 41.0 °F 40% 29.53 in 10.0 mi WSW 10.4 mph 21.9 mph N/A   Clear
1:55 PM 68.0 °F 41.0 °F 37% 29.52 in 10.0 mi WSW 16.1 mph 24.2 mph N/A   Clear
2:15 PM 68.0 °F 39.2 °F 35% 29.53 in 10.0 mi WSW 17.3 mph 26.5 mph N/A   Clear
2:35 PM 68.0 °F 39.2 °F 35% 29.53 in 10.0 mi WSW 16.1 mph 26.5 mph N/A   Clear
2:55 PM 68.0 °F 39.2 °F 35% 29.53 in 10.0 mi WSW 19.6 mph 29.9 mph N/A   Clear
3:15 PM 66.2 °F 37.4 °F 35% 29.53 in 10.0 mi WSW 21.9 mph 35.7 mph N/A   Clear
3:35 PM 66.2 °F 37.4 °F 35% 29.54 in 10.0 mi WSW 12.7 mph 26.5 mph N/A   Partly Cloudy
3:55 PM 68.0 °F 39.2 °F 35% 29.54 in 10.0 mi WSW 17.3 mph 29.9 mph N/A   Partly Cloudy
4:15 PM 68.0 °F 39.2 °F 35% 29.54 in 10.0 mi SW 13.8 mph 26.5 mph N/A   Scattered Clouds
4:35 PM 68.0 °F 37.4 °F 33% 29.54 in 10.0 mi WSW 18.4 mph 33.4 mph N/A   Scattered Clouds
4:55 PM 68.0 °F 39.2 °F 35% 29.54 in 10.0 mi SW 21.9 mph 29.9 mph N/A   Mostly Cloudy
5:15 PM 68.0 °F 37.4 °F 33% 29.54 in 10.0 mi WSW 17.3 mph 31.1 mph N/A   Scattered Clouds
5:35 PM 68.0 °F 37.4 °F 33% 29.53 in 10.0 mi WSW 17.3 mph 28.8 mph N/A   Partly Cloudy
5:55 PM 68.0 °F 37.4 °F 33% 29.54 in 10.0 mi SW 11.5 mph 20.7 mph N/A   Clear
6:15 PM 66.2 °F 37.4 °F 35% 29.53 in 10.0 mi WSW 13.8 mph 21.9 mph N/A   Scattered Clouds
6:35 PM 66.2 °F 35.6 °F 32% 29.54 in 10.0 mi WSW 12.7 mph 28.8 mph N/A   Partly Cloudy
6:55 PM 66.2 °F 35.6 °F 32% 29.54 in 10.0 mi WSW 18.4 mph 24.2 mph N/A   Scattered Clouds
7:15 PM 66.2 °F 35.6 °F 32% 29.55 in 10.0 mi WSW 13.8 mph 27.6 mph N/A   Scattered Clouds
7:35 PM 62.6 °F 39.2 °F 42% 29.56 in 10.0 mi SW 17.3 mph 32.2 mph N/A   Mostly Cloudy
7:55 PM 59.0 °F 41.0 °F 51% 29.56 in 10.0 mi SW 10.4 mph 20.7 mph N/A   Partly Cloudy
8:15 PM 57.2 °F 41.0 °F 55% 29.56 in 10.0 mi WSW 9.2 mph - N/A   Clear
8:35 PM 57.2 °F 41.0 °F 55% 29.56 in 10.0 mi SW 5.8 mph - N/A   Mostly Cloudy
8:55 PM 57.2 °F 41.0 °F 55% 29.57 in 10.0 mi SW 10.4 mph - N/A   Mostly Cloudy
9:15 PM 57.2 °F 41.0 °F 55% 29.59 in 10.0 mi SW 8.1 mph 16.1 mph N/A   Mostly Cloudy
9:55 PM 57.2 °F 39.2 °F 51% 29.60 in 10.0 mi SSW 12.7 mph 19.6 mph N/A   Scattered Clouds
10:15 PM 57.2 °F 39.2 °F 51% 29.60 in 10.0 mi SW 10.4 mph 16.1 mph N/A   Scattered Clouds
10:35 PM 57.2 °F 39.2 °F 51% 29.61 in 10.0 mi SSW 8.1 mph - N/A   Scattered Clouds
10:55 PM 57.2 °F 39.2 °F 51% 29.60 in 10.0 mi SSW 6.9 mph - N/A   Mostly Cloudy
11:15 PM 55.4 °F 41.0 °F 58% 29.61 in 10.0 mi SW 8.1 mph - N/A   Mostly Cloudy
11:35 PM 55.4 °F 41.0 °F 58% 29.60 in 10.0 mi WSW 8.1 mph - N/A   Mostly Cloudy
11:55 PM 55.4 °F 41.0 °F 58% 29.60 in 10.0 mi WSW 8.1 mph - N/A   Mostly Cloudy